YAOGAN 25A

Satellite information

Favourite Embed

Satellite Type and Status

PAYLOADIN ORBIT

Key statistics

Satellite YAOGAN 25A at a glance.

Uptime

3807

Days in orbit

Revolutions

≈ 13.5

Per day

Orbit

LEO

Low Earth Orbit

Inclination

63.4

Latest

Satellite identification and parameters

Extended collection of information and parameters for YAOGAN 25A.

Object identification

Identified? True

Debris? False

Object name: YAOGAN 25A

International designator: 2014-080A

Object number (NORAD): 40338

Object ID (CCSDS): 40338

Country: PEOPLES REPUBLIC OF CHINA (PRC)

Current information (Y/N): Y

RCS size: LARGE

Orbital parameters

Period: 107.034 minutes

Inclination: 63.3907 deg

SMA: 7467.498 km

Apoapsis: 1336.594 km

Periapsis: 842.133 km

RAAN: 261.8286 deg

Eccentricy: 0.0331075

Argument of periapsis: 7.2801 deg

Mean anomaly: 353.2862 deg

Mean motion: 13.45364789 rev/day

Mean motion (dot): -0.00000108 rev/day2

B* drag term: -0.000021323 1/REarth

Two-line elements (TLE)

Creation date: May 12, 2025, 10:46 p.m.

Reference frame: TEME

Reference center: EARTH

Epoch: May 12, 2025, 9:02 p.m. UTC

TLE line 0: 0 YAOGAN 25A

TLE line 1: 1 40338U 14080A 25132.87684810 -.00000108 00000-0 -21323-4 0 9992

TLE line 2: 2 40338 63.3907 261.8286 0331075 7.2801 353.2862 13.45364789511992

Live tracking on map

Real-time ground track for satellite YAOGAN 25A.

In-orbit conjunctions

There are no conjunctions computed for YAOGAN 25A, at the moment. Check back to stay up to date, as we update our databases every day.

Go to all conjunctions

Associated space launch

YAOGAN 25A was lifted into orbit during the mission ‘Long March 4C | Yaogan 25A, Yaogan 25B, Yaogan 25C’, on board a Long March 4C space rocket.

The launch took place on Dec. 10, 2014, 7:33 p.m. from Launch Area 4 (SLS-2 / 603).

For more information about the launch, click the button.

Launch to space Long March 4C | Yaogan 25A, Yaogan 25B, Yaogan 25C
Long March 4C | Yaogan 25A, Yaogan 25B, Yaogan 25C

Agency: N/A

Status: Launch Successful

Launch date: Dec. 10, 2014, 7:33 p.m. UTC

Rocket: Long March 4C

Launch pad: Launch Area 4 (SLS-2 / 603)

Location: Jiuquan Satellite Launch Center, People's Republic of China

...

Latest news about this satellite

There are no fresh news available about this satellite. Check back as we update our databases every day.


Newsletter sign-up

Weekly statistics, charts and insights to help you stay on top of the space industry.